Time,TemperatureF,DewpointF,PressureIn,WindDirection,WindDirectionDegrees,WindSpeedMPH,WindSpeedGustMPH,Humidity,HourlyPrecipIn,Conditions,Clouds,dailyrainin,SoftwareType,DateUTC
2011-09-01 00:13:00,73.6,49.0,29.96,SE,135,0.0,7.2,42,0.00,,,0.00,open2300-1.11,2011-09-01 06:13:00,
2011-09-01 00:23:00,73.8,48.0,29.96,SSE,157,5.8,5.8,40,0.00,,,0.00,open2300-1.11,2011-09-01 06:23:00,
2011-09-01 00:33:00,74.8,47.4,29.96,South,180,4.7,5.8,38,0.00,,,0.00,open2300-1.11,2011-09-01 06:33:00,
2011-09-01 00:53:00,76.3,46.5,29.96,South,180,0.0,5.8,35,0.00,,,0.00,open2300-1.11,2011-09-01 06:53:00,
2011-09-01 01:03:00,76.3,45.7,29.96,SSW,202,0.0,5.1,34,0.00,,,0.00,open2300-1.11,2011-09-01 07:03:00,
2011-09-01 01:13:00,76.5,47.4,29.97,SE,135,2.2,18.6,36,0.00,,,0.00,open2300-1.11,2011-09-01 07:13:00,
2011-09-01 01:33:00,75.4,47.9,29.96,SE,135,0.0,5.1,38,0.00,,,0.00,open2300-1.11,2011-09-01 07:33:00,
2011-09-01 01:43:00,75.0,47.6,29.96,SE,135,4.7,5.6,38,0.00,,,0.00,open2300-1.11,2011-09-01 07:43:00,
2011-09-01 01:53:00,74.5,47.9,29.96,SW,225,0.0,8.9,39,0.00,,,0.00,open2300-1.11,2011-09-01 07:53:00,
2011-09-01 02:03:00,74.1,47.5,29.96,SSE,157,6.9,6.9,39,0.00,,,0.00,open2300-1.11,2011-09-01 08:03:00,
2011-09-01 02:13:00,73.9,47.4,29.97,SSE,157,0.0,6.9,39,0.00,,,0.00,open2300-1.11,2011-09-01 08:13:00,
2011-09-01 02:23:00,74.1,47.5,29.97,SE,135,15.0,15.0,39,0.00,,,0.00,open2300-1.11,2011-09-01 08:23:00,
2011-09-01 02:33:00,74.3,47.0,29.97,SE,135,0.2,15.0,38,0.00,,,0.00,open2300-1.11,2011-09-01 08:33:00,
2011-09-01 02:53:00,74.8,46.7,29.97,SSW,202,0.0,0.0,37,0.00,,,0.00,open2300-1.11,2011-09-01 08:53:00,
2011-09-01 03:03:00,74.8,46.7,29.97,SE,135,0.0,0.0,37,0.00,,,0.00,open2300-1.11,2011-09-01 09:03:00,
2011-09-01 03:13:00,74.1,46.8,29.97,SSE,157,0.0,0.0,38,0.00,,,0.00,open2300-1.11,2011-09-01 09:13:00,
2011-09-01 03:23:00,73.9,47.4,29.97,WNW,292,0.0,2.0,39,0.00,,,0.00,open2300-1.11,2011-09-01 09:23:00,
2011-09-01 03:43:00,72.9,47.8,29.98,NE,45,2.5,11.0,41,0.00,,,0.00,open2300-1.11,2011-09-01 09:43:00,
2011-09-01 04:03:00,72.5,47.4,29.98,NE,45,2.2,6.5,41,0.00,,,0.00,open2300-1.11,2011-09-01 10:03:00,
2011-09-01 04:13:00,72.3,47.9,29.98,ENE,67,0.0,4.7,42,0.00,,,0.00,open2300-1.11,2011-09-01 10:13:00,
2011-09-01 04:33:00,72.0,48.2,29.98,East,90,6.0,8.5,43,0.00,,,0.00,open2300-1.11,2011-09-01 10:33:00,
2011-09-01 04:43:00,71.8,48.0,29.98,East,90,2.7,6.0,43,0.00,,,0.00,open2300-1.11,2011-09-01 10:43:00,
2011-09-01 04:53:00,71.4,48.2,29.98,NE,45,3.4,6.7,44,0.00,,,0.00,open2300-1.11,2011-09-01 10:53:00,
2011-09-01 05:03:00,71.4,48.2,29.99,ENE,67,1.6,6.5,44,0.00,,,0.00,open2300-1.11,2011-09-01 11:03:00,
2011-09-01 05:13:00,71.2,48.1,29.99,ENE,67,4.2,5.1,44,0.00,,,0.00,open2300-1.11,2011-09-01 11:13:00,
2011-09-01 05:23:00,71.2,48.1,29.99,ENE,67,0.0,4.2,44,0.00,,,0.00,open2300-1.11,2011-09-01 11:23:00,
2011-09-01 05:33:00,70.9,47.8,29.99,ENE,67,0.0,1.8,44,0.00,,,0.00,open2300-1.11,2011-09-01 11:33:00,
2011-09-01 05:43:00,70.7,47.6,29.99,East,90,0.0,4.0,44,0.00,,,0.00,open2300-1.11,2011-09-01 11:43:00,
2011-09-01 06:03:00,70.3,47.9,29.99,ENE,67,0.0,6.0,45,0.00,,,0.00,open2300-1.11,2011-09-01 12:03:00,
2011-09-01 06:13:00,70.3,48.5,29.99,ENE,67,0.0,5.1,46,0.00,,,0.00,open2300-1.11,2011-09-01 12:13:00,
2011-09-01 06:33:00,70.2,48.3,30.00,ENE,67,3.8,7.2,46,0.00,,,0.00,open2300-1.11,2011-09-01 12:33:00,
2011-09-01 06:53:00,70.0,48.2,30.00,East,90,0.0,1.3,46,0.00,,,0.00,open2300-1.11,2011-09-01 12:53:00,
2011-09-01 07:03:00,69.6,47.8,30.00,ESE,112,0.0,1.3,46,0.00,,,0.00,open2300-1.11,2011-09-01 13:03:00,
2011-09-01 07:23:00,68.7,47.6,30.00,East,90,0.0,4.2,47,0.00,,,0.00,open2300-1.11,2011-09-01 13:23:00,
2011-09-01 07:33:00,69.1,48.5,30.00,East,90,5.6,5.8,48,0.00,,,0.00,open2300-1.11,2011-09-01 13:33:00,
2011-09-01 07:53:00,69.4,48.2,30.00,ENE,67,4.2,4.5,47,0.00,,,0.00,open2300-1.11,2011-09-01 13:53:00,
2011-09-01 08:03:00,69.6,48.4,30.01,East,90,0.0,3.1,47,0.00,,,0.00,open2300-1.11,2011-09-01 14:03:00,
2011-09-01 08:13:00,69.4,48.8,30.01,East,90,0.0,5.4,48,0.00,,,0.00,open2300-1.11,2011-09-01 14:13:00,
2011-09-01 08:23:00,69.6,49.0,30.01,East,90,5.6,5.6,48,0.00,,,0.00,open2300-1.11,2011-09-01 14:23:00,
2011-09-01 08:43:00,71.2,50.5,30.01,East,90,2.9,5.6,48,0.00,,,0.00,open2300-1.11,2011-09-01 14:43:00,
2011-09-01 08:53:00,71.8,50.4,30.01,ENE,67,0.0,2.9,47,0.00,,,0.00,open2300-1.11,2011-09-01 14:53:00,
2011-09-01 09:13:00,73.2,50.5,30.01,NE,45,0.2,3.1,45,0.00,,,0.00,open2300-1.11,2011-09-01 15:13:00,
2011-09-01 09:23:00,74.1,51.3,30.01,East,90,1.6,4.9,45,0.00,,,0.00,open2300-1.11,2011-09-01 15:23:00,
2011-09-01 09:43:00,75.9,51.2,30.01,East,90,0.0,3.1,42,0.00,,,0.00,open2300-1.11,2011-09-01 15:43:00,
2011-09-01 09:53:00,76.6,52.4,30.02,East,90,1.6,5.6,43,0.00,,,0.00,open2300-1.11,2011-09-01 15:53:00,
2011-09-01 10:03:00,77.2,52.3,30.02,ENE,67,0.0,6.3,42,0.00,,,0.00,open2300-1.11,2011-09-01 16:03:00,
2011-09-01 10:13:00,77.5,52.6,30.02,SE,135,0.0,6.0,42,0.00,,,0.00,open2300-1.11,2011-09-01 16:13:00,
2011-09-01 10:23:00,78.1,52.5,30.02,East,90,3.6,3.6,41,0.00,,,0.00,open2300-1.11,2011-09-01 16:23:00,
2011-09-01 10:43:00,79.2,52.1,30.01,NW,315,0.0,0.0,39,0.00,,,0.00,open2300-1.11,2011-09-01 16:43:00,
2011-09-01 11:03:00,80.2,52.3,30.02,North,0,0.0,1.8,38,0.00,,,0.00,open2300-1.11,2011-09-01 17:03:00,
2011-09-01 11:13:00,80.8,52.0,30.02,North,0,0.0,0.0,37,0.00,,,0.00,open2300-1.11,2011-09-01 17:13:00,
2011-09-01 11:33:00,81.5,51.8,30.02,WNW,292,0.0,2.0,36,0.00,,,0.00,open2300-1.11,2011-09-01 17:33:00,
2011-09-01 11:43:00,82.2,51.6,30.01,NNE,22,3.6,3.6,35,0.00,,,0.00,open2300-1.11,2011-09-01 17:43:00,
2011-09-01 11:53:00,82.9,51.5,30.01,NNW,337,0.0,3.6,34,0.00,,,0.00,open2300-1.11,2011-09-01 17:53:00,
2011-09-01 12:03:00,83.8,50.7,30.01,West,270,0.0,3.8,32,0.00,,,0.00,open2300-1.11,2011-09-01 18:03:00,
2011-09-01 12:13:00,84.4,50.4,30.00,West,270,0.0,4.2,31,0.00,,,0.00,open2300-1.11,2011-09-01 18:13:00,
2011-09-01 12:23:00,84.7,50.0,29.99,WSW,247,0.0,0.0,30,0.00,,,0.00,open2300-1.11,2011-09-01 18:23:00,
2011-09-01 12:33:00,85.3,50.4,30.00,NNW,337,1.6,4.5,30,0.00,,,0.00,open2300-1.11,2011-09-01 18:33:00,
2011-09-01 12:43:00,85.6,50.8,29.99,NNW,337,0.0,3.4,30,0.00,,,0.00,open2300-1.11,2011-09-01 18:43:00,
2011-09-01 12:53:00,86.0,51.1,29.99,WNW,292,4.5,4.5,30,0.00,,,0.00,open2300-1.11,2011-09-01 18:53:00,
2011-09-01 13:03:00,86.4,49.2,29.98,West,270,0.0,7.2,28,0.00,,,0.00,open2300-1.11,2011-09-01 19:03:00,
2011-09-01 13:13:00,86.0,48.9,29.99,SW,225,0.0,0.0,28,0.00,,,0.00,open2300-1.11,2011-09-01 19:13:00,
2011-09-01 13:23:00,86.7,49.5,29.99,WNW,292,0.0,4.7,28,0.00,,,0.00,open2300-1.11,2011-09-01 19:23:00,
2011-09-01 13:33:00,87.4,49.0,29.98,NW,315,0.0,3.6,27,0.00,,,0.00,open2300-1.11,2011-09-01 19:33:00,
2011-09-01 13:43:00,88.0,49.5,29.98,NNW,337,1.8,2.5,27,0.00,,,0.00,open2300-1.11,2011-09-01 19:43:00,
2011-09-01 13:53:00,88.5,48.9,29.98,WNW,292,0.0,2.5,26,0.00,,,0.00,open2300-1.11,2011-09-01 19:53:00,
2011-09-01 14:03:00,89.2,48.4,29.97,NW,315,0.0,7.4,25,0.00,,,0.00,open2300-1.11,2011-09-01 20:03:00,
2011-09-01 14:13:00,89.8,48.9,29.97,NNW,337,0.0,2.9,25,0.00,,,0.00,open2300-1.11,2011-09-01 20:13:00,
2011-09-01 14:23:00,90.0,49.0,29.97,WSW,247,2.2,2.2,25,0.00,,,0.00,open2300-1.11,2011-09-01 20:23:00,
2011-09-01 14:33:00,90.1,49.2,29.97,NW,315,0.0,4.5,25,0.00,,,0.00,open2300-1.11,2011-09-01 20:33:00,
2011-09-01 14:43:00,90.5,48.4,29.96,SSE,157,0.0,2.7,24,0.00,,,0.00,open2300-1.11,2011-09-01 20:43:00,
2011-09-01 14:53:00,91.0,48.9,29.95,NNE,22,0.0,1.3,24,0.00,,,0.00,open2300-1.11,2011-09-01 20:53:00,
2011-09-01 15:03:00,91.0,48.9,29.94,WNW,292,0.0,0.2,24,0.00,,,0.00,open2300-1.11,2011-09-01 21:03:00,
2011-09-01 15:13:00,91.0,48.9,29.94,WNW,292,2.0,2.0,24,0.00,,,0.00,open2300-1.11,2011-09-01 21:13:00,
2011-09-01 15:23:00,90.7,48.6,29.94,WNW,292,0.0,2.0,24,0.00,,,0.00,open2300-1.11,2011-09-01 21:23:00,
2011-09-01 15:33:00,91.0,48.9,29.94,ENE,67,0.0,1.1,24,0.00,,,0.00,open2300-1.11,2011-09-01 21:33:00,
2011-09-01 15:43:00,90.5,48.4,29.93,SW,225,0.0,0.9,24,0.00,,,0.00,open2300-1.11,2011-09-01 21:43:00,
2011-09-01 15:53:00,89.4,47.5,29.93,North,0,0.0,1.8,24,0.00,,,0.00,open2300-1.11,2011-09-01 21:53:00,
2011-09-01 16:03:00,88.5,47.8,29.94,West,270,0.0,0.0,25,0.00,,,0.00,open2300-1.11,2011-09-01 22:03:00,
2011-09-01 16:13:00,87.6,47.0,29.94,West,270,1.3,3.4,25,0.00,,,0.00,open2300-1.11,2011-09-01 22:13:00,
2011-09-01 16:23:00,86.9,47.5,29.93,WNW,292,0.0,5.1,26,0.00,,,0.00,open2300-1.11,2011-09-01 22:23:00,
2011-09-01 16:33:00,87.6,48.1,29.93,West,270,0.0,2.7,26,0.00,,,0.00,open2300-1.11,2011-09-01 22:33:00,
2011-09-01 16:43:00,89.2,48.4,29.94,ESE,112,1.3,1.8,25,0.00,,,0.00,open2300-1.11,2011-09-01 22:43:00,
2011-09-01 16:53:00,88.9,48.1,29.93,East,90,0.0,3.6,25,0.00,,,0.00,open2300-1.11,2011-09-01 22:53:00,
2011-09-01 17:03:00,88.9,49.2,29.93,ESE,112,0.0,4.0,26,0.00,,,0.00,open2300-1.11,2011-09-01 23:03:00,
2011-09-01 17:13:00,88.9,49.2,29.93,ENE,67,4.5,4.7,26,0.00,,,0.00,open2300-1.11,2011-09-01 23:13:00,
2011-09-01 17:23:00,88.9,49.2,29.93,East,90,1.1,8.9,26,0.00,,,0.00,open2300-1.11,2011-09-01 23:23:00,
2011-09-01 17:33:00,87.6,49.2,29.93,NE,45,6.0,6.0,27,0.00,,,0.00,open2300-1.11,2011-09-01 23:33:00,
2011-09-01 17:43:00,86.2,49.1,29.93,East,90,4.9,6.9,28,0.00,,,0.00,open2300-1.11,2011-09-01 23:43:00,
2011-09-01 17:53:00,85.1,48.1,29.93,ENE,67,9.8,10.1,28,0.00,,,0.00,open2300-1.11,2011-09-01 23:53:00,
2011-09-01 18:03:00,84.0,49.3,29.93,East,90,3.8,11.6,30,0.00,,,0.00,open2300-1.11,2011-09-02 00:03:00,
2011-09-01 18:13:00,83.3,48.7,29.93,East,90,2.2,5.6,30,0.00,,,0.00,open2300-1.11,2011-09-02 00:13:00,
2011-09-01 18:23:00,82.6,48.8,29.93,East,90,8.1,8.1,31,0.00,,,0.00,open2300-1.11,2011-09-02 00:23:00,
2011-09-01 18:33:00,82.0,49.1,29.92,East,90,10.1,10.1,32,0.00,,,0.00,open2300-1.11,2011-09-02 00:33:00,
2011-09-01 18:43:00,81.7,49.6,29.92,East,90,5.1,10.1,33,0.00,,,0.00,open2300-1.11,2011-09-02 00:43:00,
2011-09-01 18:53:00,81.3,49.3,29.92,ENE,67,0.0,5.1,33,0.00,,,0.00,open2300-1.11,2011-09-02 00:53:00,
2011-09-01 19:03:00,81.1,48.4,29.92,East,90,0.0,6.0,32,0.00,,,0.00,open2300-1.11,2011-09-02 01:03:00,
2011-09-01 19:13:00,80.6,48.0,29.93,East,90,0.0,0.0,32,0.00,,,0.00,open2300-1.11,2011-09-02 01:13:00,
2011-09-01 19:23:00,80.2,47.6,29.92,ENE,67,0.0,0.9,32,0.00,,,0.00,open2300-1.11,2011-09-02 01:23:00,
2011-09-01 19:33:00,79.7,47.1,29.93,East,90,0.0,5.6,32,0.00,,,0.00,open2300-1.11,2011-09-02 01:33:00,
2011-09-01 19:43:00,79.3,46.8,29.93,East,90,4.9,4.9,32,0.00,,,0.00,open2300-1.11,2011-09-02 01:43:00,
2011-09-01 19:53:00,79.0,46.5,29.94,East,90,0.0,4.9,32,0.00,,,0.00,open2300-1.11,2011-09-02 01:53:00,
2011-09-01 20:03:00,78.6,46.9,29.95,NNW,337,0.0,0.0,33,0.00,,,0.00,open2300-1.11,2011-09-02 02:03:00,
2011-09-01 20:13:00,78.6,48.5,29.96,NE,45,0.0,0.7,35,0.00,,,0.00,open2300-1.11,2011-09-02 02:13:00,
2011-09-01 20:23:00,78.4,48.3,29.97,WSW,247,0.0,0.0,35,0.00,,,0.00,open2300-1.11,2011-09-02 02:23:00,
2011-09-01 20:33:00,78.1,48.0,29.97,NE,45,0.0,0.0,35,0.00,,,0.00,open2300-1.11,2011-09-02 02:33:00,
2011-09-01 20:43:00,77.9,48.7,29.98,NE,45,0.0,0.0,36,0.00,,,0.00,open2300-1.11,2011-09-02 02:43:00,
2011-09-01 20:53:00,77.5,48.3,29.97,NE,45,0.0,0.0,36,0.00,,,0.00,open2300-1.11,2011-09-02 02:53:00,
2011-09-01 21:03:00,76.8,48.5,29.98,South,180,0.0,5.4,37,0.00,,,0.00,open2300-1.11,2011-09-02 03:03:00,
2011-09-01 21:13:00,76.6,49.1,29.98,NE,45,0.0,0.0,38,0.00,,,0.00,open2300-1.11,2011-09-02 03:13:00,
2011-09-01 21:23:00,76.5,48.9,29.98,ENE,67,2.9,2.9,38,0.00,,,0.00,open2300-1.11,2011-09-02 03:23:00,
2011-09-01 21:33:00,76.3,49.5,29.99,East,90,1.8,6.7,39,0.00,,,0.00,open2300-1.11,2011-09-02 03:33:00,
2011-09-01 21:43:00,76.1,50.1,29.99,East,90,7.6,8.9,40,0.00,,,0.00,open2300-1.11,2011-09-02 03:43:00,
2011-09-01 21:53:00,75.7,49.8,30.00,ESE,112,0.0,7.6,40,0.00,,,0.00,open2300-1.11,2011-09-02 03:53:00,
2011-09-01 22:03:00,75.2,52.3,29.99,ENE,67,4.7,4.7,45,0.00,,,0.00,open2300-1.11,2011-09-02 04:03:00,
2011-09-01 22:13:00,73.8,52.2,29.98,East,90,5.8,7.4,47,0.00,,,0.00,open2300-1.11,2011-09-02 04:13:00,
2011-09-01 22:23:00,72.7,52.4,29.98,NE,45,0.7,8.3,49,0.00,,,0.00,open2300-1.11,2011-09-02 04:23:00,
2011-09-01 22:33:00,72.5,52.2,29.97,East,90,4.2,7.2,49,0.00,,,0.00,open2300-1.11,2011-09-02 04:33:00,
2011-09-01 22:43:00,72.5,51.6,29.97,East,90,6.3,6.3,48,0.00,,,0.00,open2300-1.11,2011-09-02 04:43:00,
2011-09-01 22:53:00,72.3,52.0,29.98,NE,45,5.4,6.3,49,0.00,,,0.00,open2300-1.11,2011-09-02 04:53:00,
2011-09-01 23:03:00,72.1,51.9,29.98,East,90,1.3,5.8,49,0.00,,,0.00,open2300-1.11,2011-09-02 05:03:00,
2011-09-01 23:13:00,72.1,51.9,29.98,ENE,67,0.0,1.3,49,0.00,,,0.00,open2300-1.11,2011-09-02 05:13:00,
2011-09-01 23:23:00,72.3,51.4,29.99,ENE,67,1.6,9.6,48,0.00,,,0.00,open2300-1.11,2011-09-02 05:23:00,
2011-09-01 23:33:00,72.3,50.2,29.99,WNW,292,0.0,1.6,46,0.00,,,0.00,open2300-1.11,2011-09-02 05:33:00,
2011-09-01 23:43:00,72.3,50.8,29.99,West,270,0.0,0.0,47,0.00,,,0.00,open2300-1.11,2011-09-02 05:43:00,
2011-09-01 23:53:00,72.3,50.8,29.99,NW,315,0.0,2.2,47,0.00,,,0.00,open2300-1.11,2011-09-02 05:53:00,